| time (UTC) | temp C | wind direction | speed KPH | gust KPH | rain 1hr cm | rain 24hr cm | rain mn cm | humidity % | barometer mb |
| 20260509113053 | 20 | 258 | 0.0 | 0.0 | 0.00 | 0.00 | 0.00 | 95 | 1013.6 |
| 20260509111552 | 20 | 257 | 0.0 | 0.0 | 0.00 | 0.00 | 0.00 | 95 | 1013.3 |
| 20260509110051 | 20 | 258 | 0.0 | 0.0 | 0.00 | 0.00 | 0.00 | 95 | 1012.8 |
| 20260509104551 | 20 | 258 | 0.0 | 0.0 | 0.00 | 0.00 | 0.00 | 95 | 1012.7 |
| 20260509103051 | 20 | 258 | 0.0 | 0.0 | 0.00 | 0.00 | 0.00 | 95 | 1013.0 |
| 20260509101555 | 20 | 257 | 0.0 | 0.0 | 0.00 | 0.00 | 0.00 | 95 | 1012.8 |
| 20260509100049 | 20 | 256 | 0.0 | 0.0 | 0.00 | 0.00 | 0.00 | 95 | 1012.6 |
| 20260509094549 | 20 | 257 | 0.0 | 0.0 | 0.00 | 0.00 | 0.00 | 94 | 1012.2 |
| 20260509093055 | 20 | 260 | 0.0 | 0.0 | 0.00 | 0.00 | 0.00 | 94 | 1011.6 |
| 20260509091548 | 20 | 260 | 0.0 | 0.0 | 0.00 | 0.00 | 0.00 | 94 | 1011.5 |
| 20260509090043 | 20 | 260 | 0.0 | 0.0 | 0.00 | 0.00 | 0.00 | 94 | 1012.2 |
| 20260509084551 | 20 | 260 | 0.0 | 0.0 | 0.00 | 0.03 | 0.00 | 94 | 1012.5 |
| 20260509083039 | 20 | 263 | 0.0 | 0.0 | 0.00 | 0.03 | 0.00 | 93 | 1013.0 |
| 20260509081539 | 20 | 264 | 0.0 | 0.0 | 0.00 | 0.03 | 0.00 | 93 | 1013.5 |
| 20260509080047 | 20 | 266 | 0.0 | 0.0 | 0.00 | 0.03 | 0.00 | 93 | 1014.0 |
| 20260509074537 | 20 | 270 | 0.0 | 0.0 | 0.00 | 0.03 | 0.00 | 92 | 1014.5 |
| 20260509073037 | 20 | 271 | 0.0 | 0.0 | 0.00 | 0.03 | 0.00 | 92 | 1014.5 |
| 20260509071532 | 20 | 272 | 0.0 | 0.0 | 0.00 | 0.03 | 0.00 | 92 | 1014.4 |
| 20260509070032 | 20 | 272 | 0.0 | 0.0 | 0.00 | 0.03 | 0.00 | 91 | 1014.3 |
| 20260509064530 | 20 | 273 | 0.0 | 0.0 | 0.00 | 0.03 | 0.00 | 91 | 1014.2 |
| 20260509063029 | 20 | 273 | 0.0 | 0.0 | 0.00 | 0.03 | 0.00 | 90 | 1013.9 |
| 20260509061526 | 20 | 273 | 0.0 | 0.0 | 0.00 | 0.03 | 0.00 | 89 | 1014.2 |
| 20260509060126 | 20 | 264 | 0.0 | 0.0 | 0.00 | 0.03 | 0.00 | 89 | 1014.3 |
| 20260509054527 | 20 | 274 | 0.0 | 0.0 | 0.00 | 0.03 | 0.00 | 87 | 1014.5 |
| 20260509053033 | 21 | 274 | 0.0 | 0.0 | 0.00 | 0.03 | 0.00 | 88 | 1014.4 |
| 20260509051528 | 21 | 274 | 0.0 | 0.0 | 0.00 | 0.03 | 0.00 | 88 | 1014.6 |
| 20260509050016 | 21 | 274 | 0.0 | 0.0 | 0.00 | 0.03 | 0.00 | 88 | 1014.6 |
| 20260509044512 | 21 | 274 | 0.0 | 0.0 | 0.00 | 0.03 | 0.00 | 88 | 1014.0 |
| 20260509043011 | 20 | 274 | 0.0 | 0.0 | 0.00 | 0.03 | 0.00 | 88 | 1013.2 |
| 20260509041511 | 21 | 274 | 0.0 | 0.0 | 0.00 | 0.03 | 0.00 | 88 | 1014.2 |
| 20260509040010 | 21 | 274 | 0.0 | 0.0 | 0.00 | 0.03 | 0.00 | 87 | 1014.8 |
| 20260509034507 | 21 | 274 | 0.0 | 0.0 | 0.00 | 0.03 | 0.00 | 86 | 1014.5 |
| 20260509033123 | 21 | 274 | 0.0 | 0.0 | 0.00 | 0.03 | 0.00 | 86 | 1014.4 |
| 20260509031504 | 21 | 274 | 0.0 | 0.0 | 0.00 | 0.03 | 0.00 | 86 | 1013.9 |
| 20260509030007 | 21 | 274 | 0.0 | 0.0 | 0.00 | 0.03 | 0.00 | 85 | 1013.8 |
| 20260509024503 | 21 | 274 | 0.0 | 0.0 | 0.00 | 0.03 | 0.00 | 85 | 1013.7 |
| 20260509023002 | 21 | 274 | 0.0 | 0.0 | 0.00 | 0.03 | 0.00 | 85 | 1013.6 |
| 20260509021600 | 21 | 274 | 0.0 | 0.0 | 0.00 | 0.03 | 0.00 | 83 | 1013.3 |
| 20260509020058 | 21 | 274 | 0.0 | 0.0 | 0.00 | 0.03 | 0.00 | 83 | 1013.0 |
| 20260509014556 | 21 | 274 | 0.0 | 0.0 | 0.00 | 0.03 | 0.00 | 82 | 1012.9 |
| 20260509013107 | 21 | 274 | 0.0 | 0.0 | 0.00 | 0.03 | 0.00 | 81 | 1012.8 |
| 20260509011555 | 21 | 274 | 0.0 | 0.0 | 0.00 | 0.03 | 0.00 | 81 | 1012.8 |
| 20260509010053 | 22 | 274 | 0.0 | 0.0 | 0.00 | 0.03 | 0.00 | 80 | 1012.4 |
| 20260509004556 | 22 | 274 | 0.0 | 0.0 | 0.00 | 0.03 | 0.00 | 80 | 1012.2 |
| 20260509003049 | 22 | 274 | 0.0 | 0.0 | 0.00 | 0.03 | 0.00 | 79 | 1012.1 |
| 20260509001546 | 22 | 260 | 0.0 | 0.0 | 0.00 | 0.03 | 0.00 | 77 | 1012.1 |
| 20260509000047 | 23 | 262 | 0.0 | 3.2 | 0.00 | 0.03 | 0.00 | 76 | 1012.3 |
| 20260508234544 | 23 | 260 | 0.0 | 0.0 | 0.00 | 0.03 | 0.00 | 75 | 1012.4 |
| 20260508233051 | 23 | 260 | 0.0 | 6.4 | 0.00 | 0.03 | 0.00 | 74 | 1012.5 |
| 20260508231546 | 23 | 259 | 0.0 | 1.6 | 0.00 | 0.03 | 0.00 | 74 | 1012.8 |
| 20260508230053 | 24 | 260 | 0.0 | 4.8 | 0.00 | 0.03 | 0.00 | 73 | 1012.9 |
| 20260508224542 | 24 | 266 | 0.0 | 4.8 | 0.00 | 0.03 | 0.00 | 72 | 1012.8 |
| 20260508223041 | 25 | 256 | 0.0 | 1.6 | 0.00 | 0.03 | 0.00 | 72 | 1012.5 |
| 20260508221540 | 25 | 262 | 0.0 | 1.6 | 0.00 | 0.03 | 0.00 | 71 | 1012.4 |
| 20260508220039 | 24 | 270 | 0.0 | 0.0 | 0.00 | 0.03 | 0.00 | 70 | 1011.7 |
| 20260508214538 | 24 | 262 | 0.0 | 0.0 | 0.00 | 0.03 | 0.00 | 75 | 1012.5 |
| 20260508213035 | 23 | 262 | 0.0 | 0.0 | 0.00 | 0.03 | 0.00 | 75 | 1013.5 |
| 20260508211533 | 23 | 262 | 0.0 | 0.0 | 0.00 | 0.03 | 0.00 | 73 | 1013.5 |
| 20260508210023 | 24 | 274 | 0.0 | 0.0 | 0.00 | 0.03 | 0.00 | 71 | 1014.2 |
| 20260508204521 | 25 | 274 | 0.0 | 0.0 | 0.00 | 0.03 | 0.00 | 69 | 1014.3 |
| 20260508203019 | 25 | 274 | 0.0 | 1.6 | 0.00 | 0.03 | 0.00 | 69 | 1014.3 |
| 20260508201516 | 25 | 273 | 0.0 | 4.8 | 0.00 | 0.03 | 0.00 | 67 | 1014.3 |
| 20260508200016 | 25 | 281 | 0.0 | 1.6 | 0.00 | 0.03 | 0.00 | 67 | 1014.4 |
| 20260508194514 | 26 | 270 | 0.0 | 3.2 | 0.00 | 0.03 | 0.00 | 67 | 1014.5 |
| 20260508191536 | 26 | 262 | 0.0 | 0.0 | 0.00 | 0.03 | 0.03 | 66 | 1015.0 |
| 20260508190024 | 25 | 274 | 0.0 | 0.0 | 0.00 | 0.03 | 0.03 | 68 | 1015.0 |
| 20260508184521 | 25 | 275 | 0.0 | 0.0 | 0.00 | 0.03 | 0.03 | 66 | 1015.4 |
| 20260508183018 | 25 | 273 | 0.0 | 0.0 | 0.00 | 0.03 | 0.03 | 67 | 1015.4 |
| 20260508181516 | 25 | 275 | 0.0 | 0.0 | 0.00 | 0.03 | 0.03 | 66 | 1015.8 |
| 20260508180018 | 25 | 265 | 0.0 | 0.0 | 0.00 | 0.03 | 0.03 | 69 | 1016.0 |
| 20260508174509 | 24 | 274 | 0.0 | 1.6 | 0.00 | 0.03 | 0.03 | 70 | 1016.4 |
| 20260508173008 | 23 | 270 | 0.0 | 1.6 | 0.00 | 0.03 | 0.03 | 70 | 1016.5 |
| 20260508171513 | 23 | 276 | 0.0 | 3.2 | 0.00 | 0.03 | 0.03 | 71 | 1017.2 |
| 20260508170002 | 23 | 274 | 0.0 | 3.2 | 0.00 | 0.03 | 0.03 | 70 | 1017.4 |
| 20260508164602 | 22 | 264 | 0.0 | 4.8 | 0.00 | 0.03 | 0.03 | 72 | 1017.9 |
| 20260508163100 | 22 | 270 | 0.0 | 1.6 | 0.00 | 0.03 | 0.03 | 71 | 1018.0 |
| 20260508161558 | 23 | 270 | 0.0 | 4.8 | 0.00 | 0.03 | 0.03 | 68 | 1018.2 |
| 20260508160055 | 23 | 270 | 0.0 | 9.7 | 0.00 | 0.03 | 0.03 | 70 | 1018.1 |
| 20260508154557 | 23 | 283 | 0.0 | 6.4 | 0.00 | 0.03 | 0.03 | 70 | 1018.4 |
| 20260508153053 | 23 | 276 | 0.0 | 1.6 | 0.00 | 0.03 | 0.03 | 69 | 1018.4 |
| 20260508151557 | 22 | 283 | 0.0 | 0.0 | 0.00 | 0.03 | 0.03 | 71 | 1018.3 |
| 20260508150045 | 21 | 284 | 0.0 | 1.6 | 0.00 | 0.03 | 0.03 | 76 | 1018.5 |
| 20260508144548 | 20 | 287 | 0.0 | 1.6 | 0.00 | 0.03 | 0.03 | 79 | 1018.4 |
| 20260508143049 | 19 | 281 | 0.0 | 0.0 | 0.00 | 0.03 | 0.03 | 86 | 1018.5 |
| 20260508141534 | 17 | 283 | 0.0 | 0.0 | 0.00 | 0.03 | 0.03 | 91 | 1018.6 |
| 20260508140037 | 16 | 283 | 0.0 | 0.0 | 0.00 | 0.03 | 0.03 | 96 | 1018.6 |
| 20260508134529 | 16 | 283 | 0.0 | 0.0 | 0.00 | 0.03 | 0.03 | 95 | 1018.5 |
| 20260508133026 | 15 | 283 | 0.0 | 0.0 | 0.00 | 0.03 | 0.03 | 96 | 1018.7 |
| 20260508131524 | 15 | 283 | 0.0 | 0.0 | 0.00 | 0.03 | 0.03 | 95 | 1018.8 |
| 20260508130032 | 15 | 283 | 0.0 | 0.0 | 0.00 | 0.03 | 0.03 | 96 | 1019.2 |
| 20260508124531 | 14 | 283 | 0.0 | 0.0 | 0.00 | 0.03 | 0.03 | 96 | 1019.1 |
| 20260508123056 | 14 | 283 | 0.0 | 0.0 | 0.00 | 0.03 | 0.03 | 95 | 1019.2 |
| 20260508121518 | 13 | 283 | 0.0 | 0.0 | 0.00 | 0.03 | 0.03 | 95 | 1018.9 |
| 20260508120018 | 13 | 283 | 0.0 | 0.0 | 0.00 | 0.03 | 0.03 | 95 | 1018.9 |
| 20260508114552 | 14 | 283 | 0.0 | 0.0 | 0.00 | 0.03 | 0.03 | 95 | 1019.1 |